| time (UTC) | temp F | wind direction | speed MPH | gust MPH | rain 1hr in | rain 24hr in | rain mn in | humidity % | barometer mb |
| 20260506073352 | 73 | 142 | 3.0 | 6.0 | 0.00 | 0.00 | 0.00 | 26 | 1008.4 |
| 20260506072251 | 73 | 164 | 3.0 | 9.0 | 0.00 | 0.00 | 0.00 | 26 | 1008.5 |
| 20260506071151 | 74 | 164 | 3.0 | 7.0 | 0.00 | 0.00 | 0.00 | 25 | 1008.4 |
| 20260506061648 | 73 | 141 | 3.0 | 5.0 | 0.00 | 0.00 | 0.00 | 25 | 1008.3 |
| 20260506060547 | 73 | 141 | 5.0 | 12.0 | 0.00 | 0.00 | 0.00 | 24 | 1008.4 |
| 20260506051044 | 72 | 139 | 7.0 | 12.0 | 0.00 | 0.00 | 0.00 | 27 | 1008.3 |
| 20260506044843 | 72 | 142 | 8.0 | 12.0 | 0.00 | 0.00 | 0.00 | 28 | 1008.5 |
| 20260506043742 | 71 | 135 | 8.0 | 12.0 | 0.00 | 0.00 | 0.00 | 29 | 1008.5 |
| 20260506042641 | 73 | 125 | 7.0 | 11.0 | 0.00 | 0.00 | 0.00 | 27 | 1008.7 |
| 20260506041541 | 73 | 136 | 5.0 | 9.0 | 0.00 | 0.00 | 0.00 | 26 | 1008.7 |
| 20260506040440 | 72 | 122 | 6.0 | 8.0 | 0.00 | 0.00 | 0.00 | 27 | 1008.2 |
| 20260506035340 | 72 | 122 | 5.0 | 8.0 | 0.00 | 0.00 | 0.00 | 30 | 1008.1 |
| 20260506034239 | 72 | 116 | 7.0 | 10.0 | 0.00 | 0.00 | 0.00 | 27 | 1008.1 |
| 20260506033138 | 72 | 103 | 8.0 | 10.0 | 0.00 | 0.00 | 0.00 | 28 | 1007.6 |
| 20260506032038 | 72 | 122 | 6.0 | 7.0 | 0.00 | 0.00 | 0.00 | 28 | 1008.1 |
| 20260506030937 | 72 | 112 | 8.0 | 11.0 | 0.00 | 0.00 | 0.00 | 29 | 1007.8 |
| 20260506025836 | 72 | 106 | 9.0 | 11.0 | 0.00 | 0.00 | 0.00 | 28 | 1007.8 |
| 20260506024736 | 72 | 106 | 9.0 | 11.0 | 0.00 | 0.00 | 0.00 | 29 | 1007.5 |
| 20260506023635 | 72 | 105 | 9.0 | 10.0 | 0.00 | 0.00 | 0.00 | 29 | 1007.7 |
| 20260506022535 | 72 | 98 | 9.0 | 12.0 | 0.00 | 0.00 | 0.00 | 29 | 1007.1 |
| 20260506021434 | 73 | 101 | 10.0 | 12.0 | 0.00 | 0.00 | 0.00 | 27 | 1007.3 |
| 20260506020333 | 73 | 106 | 7.0 | 8.0 | 0.00 | 0.00 | 0.00 | 27 | 1007.5 |
| 20260506015233 | 74 | 79 | 5.0 | 6.0 | 0.00 | 0.00 | 0.00 | 25 | 1007.0 |
| 20260506014132 | 74 | 78 | 7.0 | 8.0 | 0.00 | 0.00 | 0.00 | 26 | 1006.9 |
| 20260506013032 | 74 | 63 | 5.0 | 6.0 | 0.00 | 0.00 | 0.00 | 26 | 1006.9 |
| 20260506011931 | 75 | 39 | 5.0 | 9.0 | 0.00 | 0.00 | 0.00 | 25 | 1006.7 |
| 20260506010830 | 75 | 43 | 5.0 | 8.0 | 0.00 | 0.00 | 0.00 | 25 | 1006.7 |
| 20260506005730 | 76 | 29 | 5.0 | 9.0 | 0.00 | 0.00 | 0.00 | 24 | 1006.8 |
| 20260506004629 | 76 | 4 | 6.0 | 9.0 | 0.00 | 0.00 | 0.00 | 23 | 1006.7 |
| 20260506003529 | 77 | 4 | 6.0 | 9.0 | 0.00 | 0.00 | 0.00 | 22 | 1006.7 |
| 20260506002428 | 77 | 26 | 7.0 | 10.0 | 0.00 | 0.00 | 0.00 | 22 | 1006.6 |
| 20260506001327 | 77 | 359 | 8.0 | 11.0 | 0.00 | 0.00 | 0.00 | 22 | 1006.5 |
| 20260506000227 | 78 | 4 | 9.0 | 12.0 | 0.00 | 0.00 | 0.00 | 21 | 1006.6 |
| 20260505235126 | 78 | 354 | 10.0 | 15.0 | 0.00 | 0.00 | 0.00 | 20 | 1006.7 |
| 20260505234025 | 79 | 354 | 11.0 | 14.0 | 0.00 | 0.00 | 0.00 | 20 | 1006.7 |
| 20260505232925 | 79 | 339 | 12.0 | 17.0 | 0.00 | 0.00 | 0.00 | 21 | 1006.6 |
| 20260505231824 | 79 | 343 | 11.0 | 18.0 | 0.00 | 0.00 | 0.00 | 20 | 1006.6 |
| 20260505230724 | 80 | 326 | 12.0 | 16.0 | 0.00 | 0.00 | 0.00 | 20 | 1006.6 |
| 20260505225623 | 80 | 299 | 12.0 | 18.0 | 0.00 | 0.00 | 0.00 | 21 | 1006.6 |
| 20260505224522 | 80 | 317 | 11.0 | 17.0 | 0.00 | 0.00 | 0.00 | 22 | 1006.5 |
| 20260505223422 | 80 | 314 | 11.0 | 18.0 | 0.00 | 0.00 | 0.00 | 23 | 1006.4 |
| 20260505222321 | 80 | 343 | 12.0 | 17.0 | 0.00 | 0.00 | 0.00 | 23 | 1006.6 |
| 20260505221220 | 80 | 328 | 14.0 | 17.0 | 0.00 | 0.00 | 0.00 | 24 | 1006.7 |
| 20260505220120 | 80 | 324 | 15.0 | 19.0 | 0.00 | 0.00 | 0.00 | 23 | 1006.7 |
| 20260505215019 | 82 | 308 | 11.0 | 17.0 | 0.00 | 0.00 | 0.00 | 23 | 1007.0 |
| 20260505213919 | 82 | 323 | 12.0 | 17.0 | 0.00 | 0.00 | 0.00 | 23 | 1006.8 |
| 20260505212818 | 84 | 324 | 11.0 | 14.0 | 0.00 | 0.00 | 0.00 | 20 | 1006.9 |
| 20260505211717 | 83 | 314 | 13.0 | 18.0 | 0.00 | 0.00 | 0.00 | 21 | 1006.9 |
| 20260505210617 | 84 | 289 | 13.0 | 20.0 | 0.00 | 0.00 | 0.00 | 20 | 1007.0 |
| 20260505205516 | 83 | 289 | 9.0 | 14.0 | 0.00 | 0.00 | 0.00 | 22 | 1007.1 |
| 20260505204416 | 84 | 278 | 9.0 | 18.0 | 0.00 | 0.00 | 0.00 | 21 | 1007.5 |
| 20260505203315 | 84 | 323 | 7.0 | 11.0 | 0.00 | 0.00 | 0.00 | 21 | 1007.7 |
| 20260505202214 | 83 | 258 | 8.0 | 13.0 | 0.00 | 0.00 | 0.00 | 22 | 1007.6 |
| 20260505201114 | 83 | 280 | 9.0 | 14.0 | 0.00 | 0.00 | 0.00 | 21 | 1007.7 |
| 20260505200013 | 82 | 282 | 10.0 | 14.0 | 0.00 | 0.00 | 0.00 | 22 | 1007.6 |
| 20260505194912 | 82 | 347 | 9.0 | 15.0 | 0.00 | 0.00 | 0.00 | 22 | 1007.5 |
| 20260505193812 | 83 | 308 | 8.0 | 12.0 | 0.00 | 0.00 | 0.00 | 21 | 1007.8 |
| 20260505192711 | 82 | 314 | 9.0 | 14.0 | 0.00 | 0.00 | 0.00 | 22 | 1007.9 |
| 20260505191611 | 81 | 349 | 6.0 | 9.0 | 0.00 | 0.00 | 0.00 | 23 | 1008.2 |
| 20260505190510 | 81 | 296 | 10.0 | 16.0 | 0.00 | 0.00 | 0.00 | 23 | 1008.4 |
| 20260505185409 | 80 | 334 | 8.0 | 15.0 | 0.00 | 0.00 | 0.00 | 22 | 1008.4 |
| 20260505184309 | 81 | 20 | 7.0 | 13.0 | 0.00 | 0.00 | 0.00 | 22 | 1008.4 |
| 20260505183208 | 80 | 313 | 7.0 | 12.0 | 0.00 | 0.00 | 0.00 | 23 | 1008.8 |
| 20260505182108 | 80 | 286 | 9.0 | 15.0 | 0.00 | 0.00 | 0.00 | 23 | 1008.7 |
| 20260505181007 | 80 | 307 | 9.0 | 14.0 | 0.00 | 0.00 | 0.00 | 23 | 1008.7 |
| 20260505175906 | 79 | 291 | 11.0 | 14.0 | 0.00 | 0.00 | 0.00 | 22 | 1008.8 |
| 20260505174806 | 80 | 285 | 10.0 | 17.0 | 0.00 | 0.00 | 0.00 | 22 | 1008.6 |
| 20260505173705 | 79 | 344 | 11.0 | 17.0 | 0.00 | 0.00 | 0.00 | 24 | 1008.9 |
| 20260505172604 | 78 | 312 | 14.0 | 18.0 | 0.00 | 0.00 | 0.00 | 25 | 1009.1 |
| 20260505171504 | 78 | 293 | 13.0 | 17.0 | 0.00 | 0.00 | 0.00 | 24 | 1009.2 |
| 20260505170403 | 78 | 283 | 13.0 | 21.0 | 0.00 | 0.00 | 0.00 | 24 | 1009.3 |
| 20260505165305 | 77 | 301 | 15.0 | 20.0 | 0.00 | 0.00 | 0.00 | 24 | 1009.2 |
| 20260505164202 | 77 | 316 | 16.0 | 22.0 | 0.00 | 0.00 | 0.00 | 25 | 1008.8 |
| 20260505163101 | 76 | 316 | 15.0 | 21.0 | 0.00 | 0.00 | 0.00 | 25 | 1009.0 |
| 20260505162001 | 77 | 291 | 15.0 | 19.0 | 0.00 | 0.00 | 0.00 | 23 | 1009.0 |
| 20260505160900 | 77 | 320 | 14.0 | 18.0 | 0.00 | 0.00 | 0.00 | 24 | 1009.0 |
| 20260505152458 | 75 | 303 | 11.0 | 18.0 | 0.00 | 0.00 | 0.00 | 27 | 1008.8 |
| 20260505151357 | 74 | 276 | 8.0 | 13.0 | 0.00 | 0.00 | 0.00 | 29 | 1008.8 |
| 20260505150258 | 73 | 272 | 8.0 | 11.0 | 0.00 | 0.00 | 0.00 | 33 | 1008.8 |
| 20260505130152 | 68 | 265 | 8.0 | 9.0 | 0.00 | 0.00 | 0.00 | 32 | 1007.6 |
| 20260505123948 | 69 | 241 | 7.0 | 10.0 | 0.00 | 0.00 | 0.00 | 31 | 1007.1 |
| 20260505122848 | 69 | 260 | 8.0 | 10.0 | 0.00 | 0.00 | 0.00 | 31 | 1007.1 |
| 20260505121748 | 68 | 256 | 8.0 | 10.0 | 0.00 | 0.00 | 0.00 | 32 | 1006.9 |
| 20260505120647 | 68 | 272 | 9.0 | 11.0 | 0.00 | 0.00 | 0.00 | 33 | 1006.6 |
| 20260505115621 | 68 | 258 | 9.0 | 11.0 | 0.00 | 0.00 | 0.00 | 33 | 1006.5 |
| 20260505115546 | 68 | 258 | 9.0 | 11.0 | 0.00 | 0.00 | 0.00 | 33 | 1006.5 |
| 20260505114446 | 68 | 253 | 9.0 | 12.0 | 0.00 | 0.00 | 0.00 | 34 | 1006.3 |
| 20260505113345 | 68 | 263 | 9.0 | 11.0 | 0.00 | 0.00 | 0.00 | 34 | 1006.3 |
| 20260505112244 | 68 | 272 | 9.0 | 11.0 | 0.00 | 0.00 | 0.00 | 34 | 1006.3 |
| 20260505111144 | 68 | 260 | 10.0 | 11.0 | 0.00 | 0.00 | 0.00 | 34 | 1006.2 |
| 20260505101641 | 69 | 258 | 8.0 | 9.0 | 0.00 | 0.00 | 0.00 | 34 | 1006.4 |
| 20260505100540 | 70 | 255 | 8.0 | 9.0 | 0.00 | 0.00 | 0.00 | 33 | 1006.3 |
| 20260505095439 | 70 | 256 | 8.0 | 9.0 | 0.00 | 0.00 | 0.00 | 33 | 1006.2 |
| 20260505094339 | 70 | 260 | 9.0 | 10.0 | 0.00 | 0.00 | 0.00 | 33 | 1006.2 |
| 20260505093238 | 70 | 264 | 9.0 | 10.0 | 0.00 | 0.00 | 0.00 | 34 | 1006.1 |
| 20260505092137 | 70 | 270 | 9.0 | 11.0 | 0.00 | 0.00 | 0.00 | 34 | 1006.1 |
| 20260505091037 | 71 | 272 | 8.0 | 10.0 | 0.00 | 0.00 | 0.00 | 34 | 1006.0 |
| 20260505085937 | 72 | 275 | 7.0 | 9.0 | 0.00 | 0.00 | 0.00 | 33 | 1006.0 |
| 20260505084836 | 72 | 267 | 7.0 | 8.0 | 0.00 | 0.00 | 0.00 | 34 | 1006.1 |
| 20260505083735 | 72 | 251 | 6.0 | 8.0 | 0.00 | 0.00 | 0.00 | 36 | 1006.2 |
| 20260505082634 | 70 | 245 | 6.0 | 7.0 | 0.00 | 0.00 | 0.00 | 41 | 1006.5 |
| 20260505081534 | 71 | 243 | 6.0 | 9.0 | 0.00 | 0.00 | 0.00 | 40 | 1006.5 |
| 20260505080433 | 72 | 236 | 5.0 | 7.0 | 0.00 | 0.00 | 0.00 | 41 | 1006.5 |